[[{"header":{"parameterUnit":"m.s-1","parameterCategory":1,"la1":30.2992,"la2":30.254,"lo1":-89.0895,"lo2":-89.0443,"dy":0.0025,"dx":0.0025,"nx":19,"ny":19,"refTime":"2026-04-10T03:00:00:Z","depth":0,"parameterNumber":2,"parameterNumberName":"U-component_of_WINDS"},"data":[0,0,0,-2.5448,-2.5448,-2.543,-2.543,-2.5428,-2.5428,0,0,0,0,0,0,0,0,0,0,0,-2.5466,-2.5466,-2.5448,-2.5448,-2.543,-2.543,-2.5428,-2.5428,0,0,0,0,0,0,0,0,0,0,0,-2.5465,-2.5466,-2.5466,-2.5448,-2.543,-2.543,-2.5428,-2.5434,0,0,0,0,0,0,0,0,0,0,-2.5448,-2.5476,-2.5466,-2.5466,-2.5448,-2.543,-2.543,-2.5434,-2.5434,-2.5445,0,-2.5458,0,-2.5443,-2.543,-2.543,0,0,0,-2.5439,-2.5476,-2.546,-2.5466,-2.5448,-2.543,-2.5436,-2.5434,-2.5433,-2.5445,-2.5458,-2.5457,-2.5443,-2.543,-2.543,-2.5526,-2.5526,0,0,-2.544,-2.5469,-2.5461,-2.5461,-2.5464,-2.5436,-2.5435,-2.5433,-2.5449,-2.5458,-2.5457,-2.5443,-2.543,-2.543,-2.5525,-2.5526,0,0,0,-2.5449,-2.547,-2.5454,-2.5461,-2.5457,-2.5436,-2.5435,-2.5449,-2.5442,-2.5457,-2.5443,-2.543,-2.543,-2.5524,-2.5525,-2.5597,0,0,0,-2.5449,-2.5475,-2.5455,-2.5472,-2.5457,-2.5453,-2.5452,-2.5442,-2.5441,-2.5443,-2.543,-2.543,-2.5523,-2.5524,-2.5593,-2.5625,0,0,0,-2.5463,-2.5476,-2.5478,-2.5474,-2.5467,-2.5452,-2.5444,-2.5441,-2.5433,-2.543,-2.543,-2.5522,-2.5524,-2.5589,-2.5619,-2.5659,0,0,0,-2.5485,-2.5541,-2.548,-2.5538,-2.5468,-2.5497,-2.5444,-2.5464,-2.5469,-2.543,-2.5523,-2.5525,-2.5588,-2.5615,-2.5656,-2.5698,-2.5719,0,0,-2.5572,-2.5553,-2.5585,-2.5529,-2.5576,-2.5497,-2.5555,-2.5532,-2.5505,-2.5521,-2.5523,-2.5594,-2.5619,-2.5659,-2.5824,-2.5841,0,0,0,-2.5622,-2.5645,-2.5652,-2.5658,-2.5643,-2.5633,-2.5599,-2.5591,-2.5602,-2.5519,-2.5618,-2.5632,-2.5655,-2.5673,-2.5688,-2.5705,-2.5535,-2.5535,-2.5535,-2.5786,-2.5749,-2.58,-2.5762,-2.5769,-2.5734,-2.5737,-2.572,-2.568,-2.5705,-2.5709,-2.5814,-2.5837,-2.5847,-2.5866,-2.5729,-2.5729,-2.5729,-2.5729,-2.591,-2.5937,-2.5884,-2.5914,-2.5876,-2.59,-2.587,-2.5841,-2.5859,-2.5807,-2.5825,-2.5771,-2.5867,-2.5881,-2.5734,-2.5733,-2.5733,-2.5732,-2.5732,-2.6013,-2.6019,-2.6009,-2.6017,-2.6027,-2.5986,-2.6007,-2.5971,-2.5937,-2.5954,-2.5955,-2.5954,-2.5948,-2.5957,-2.5958,-2.5958,-2.5958,-2.5959,-2.5959,-2.6123,-2.611,-2.6131,-2.6121,-2.6121,-2.6118,-2.6085,-2.6084,-2.6075,-2.6047,-2.6047,-2.6006,-2.5883,-2.5853,-2.5964,-2.5963,-2.5963,-2.5962,-2.5962,-2.6262,-2.6225,-2.6258,-2.6259,-2.6245,-2.6258,-2.6212,-2.6215,-2.621,-2.6221,-2.6177,-2.6092,-2.6069,-2.6058,-2.6033,-2.6184,-2.6184,-2.6184,-2.6184,-2.6349,-2.6334,-2.636,-2.6364,-2.6364,-2.6326,-2.6366,-2.6342,-2.6311,-2.6306,-2.6279,-2.6242,-2.6232,-2.6216,-2.6201,-2.6177,-2.6361,-2.6362,-2.6362,-2.6432,-2.6416,-2.6456,-2.6425,-2.6412,-2.6402,-2.6438,-2.6446,-2.6403,-2.6368,-2.6301,-2.6293,-2.6234,-2.6217,-2.6179,-2.6157,-2.6112,0,0]},{"header":{"parameterUnit":"m.s-1","parameterCategory":1,"la1":30.2992,"la2":30.254,"lo1":-89.0895,"lo2":-89.0443,"dy":0.0025,"dx":0.0025,"nx":19,"ny":19,"refTime":"2026-04-10T03:00:00:Z","depth":0,"parameterNumber":3,"parameterNumberName":"V-component_of_WINDS"},"data":[0,0,0,2.5695,2.5696,2.5718,2.5719,2.5742,2.5742,0,0,0,0,0,0,0,0,0,0,0,2.5686,2.5686,2.5695,2.5696,2.5718,2.5719,2.5742,2.5742,0,0,0,0,0,0,0,0,0,0,0,2.5686,2.5686,2.5686,2.5696,2.5718,2.5719,2.5742,2.5727,0,0,0,0,0,0,0,0,0,0,2.5705,2.5694,2.5686,2.5686,2.5696,2.5718,2.5719,2.5726,2.5728,2.573,0,2.5731,0,2.5737,2.5744,2.5744,0,0,0,2.5697,2.5693,2.5702,2.5686,2.5696,2.5718,2.5709,2.5727,2.5729,2.5732,2.5732,2.5733,2.5738,2.5744,2.5744,2.5754,2.5754,0,0,2.5696,2.5688,2.57,2.5703,2.57,2.5708,2.5709,2.5728,2.5727,2.5732,2.5733,2.5738,2.5744,2.5744,2.5754,2.5754,0,0,0,2.5691,2.5687,2.5696,2.5702,2.5706,2.5709,2.571,2.5726,2.573,2.5734,2.5738,2.5744,2.5744,2.5754,2.5754,2.5745,0,0,0,2.5691,2.5684,2.5695,2.569,2.5706,2.5717,2.5708,2.5729,2.5731,2.5738,2.5744,2.5744,2.5754,2.5754,2.5746,2.5742,0,0,0,2.5685,2.5684,2.5686,2.569,2.5699,2.5717,2.5721,2.5729,2.5734,2.5744,2.5744,2.5754,2.5754,2.5746,2.5743,2.5743,0,0,0,2.5676,2.5677,2.5686,2.5688,2.5699,2.5712,2.5721,2.573,2.5738,2.5744,2.5754,2.5754,2.5746,2.5743,2.5744,2.5742,2.5741,0,0,2.5672,2.5676,2.5678,2.5687,2.5696,2.5709,2.5717,2.573,2.5737,2.5748,2.5748,2.5746,2.5743,2.5743,2.5737,2.5736,0,0,0,2.5674,2.5675,2.5679,2.5687,2.5699,2.5709,2.5723,2.5729,2.5738,2.5741,2.5746,2.5745,2.5745,2.5745,2.5744,2.5746,2.5753,2.5753,2.5753,2.5654,2.5666,2.5671,2.5686,2.5694,2.571,2.5717,2.5727,2.5734,2.5736,2.5738,2.5734,2.5733,2.5732,2.5734,2.5739,2.5739,2.5739,2.5739,2.5649,2.5653,2.5667,2.5676,2.5689,2.5697,2.5713,2.5718,2.5727,2.5732,2.5733,2.5737,2.5731,2.5733,2.5738,2.5738,2.5738,2.5739,2.5739,2.5637,2.5642,2.565,2.5665,2.5674,2.569,2.5699,2.5709,2.5719,2.572,2.5725,2.5725,2.5727,2.5722,2.5722,2.5722,2.5722,2.5722,2.5722,2.5622,2.5632,2.5639,2.5654,2.5662,2.5673,2.5691,2.5698,2.5709,2.5716,2.5717,2.5725,2.5729,2.5729,2.5722,2.5722,2.5722,2.5722,2.5722,2.5611,2.5616,2.5627,2.5635,2.5655,2.5664,2.5679,2.5694,2.5702,2.5706,2.5715,2.5716,2.572,2.5721,2.5722,2.5713,2.5713,2.5713,2.5713,2.5601,2.5605,2.562,2.5633,2.5646,2.5661,2.5673,2.5688,2.5703,2.5709,2.5712,2.5714,2.5714,2.5718,2.5719,2.572,2.571,2.571,2.571,2.5596,2.5602,2.561,2.5627,2.5644,2.5659,2.567,2.5684,2.5702,2.571,2.5714,2.5714,2.5717,2.5718,2.5724,2.5725,2.5727,0,0]}]]